Regional Weather Roundup
Issued by NWS

Home | Current Version | Previous Version | Text Only | Print | Product List | Glossary On
Versions: 1 2 3 4 5 6 7 8 9 10 11 12 13 14 15 16 17 18 19 20 21 22 23 24 25 26 27 28 29 30 31 32 33 34 35 36 37 38 39 40 41 42 43 44 45 46 47 48 49 50
000
ASCA42 TJSJ 180710
RWRPR
PUERTO RICO/U.S. VIRGIN ISLANDS HOURLY WEATHER ROUNDUP
NATIONAL WEATHER SERVICE SAN JUAN PR
300 AM AST MON DEC 18 2017

PRZ001>002-007>008-010-180800-
PUERTO RICO

CITY           SKY/WX    TMP DP  RH WIND       PRES   REMARKS
SAN JUAN LMM   PTCLDY    79  73  83 NE15      30.04F
PONCE          CLEAR     73  72  94 CALM      30.05F
$$

VIZ001>002-180800-
U.S. VIRGIN ISLANDS

CITY           SKY/WX    TMP DP  RH WIND       PRES   REMARKS
CHARLOTTE AMA  PTCLDY    79  73  83 NE16G24   30.02F
CHRISTIANSTED  LGT RAIN  75  73  94 NE10      30.02F
$$

HOURLY WEATHER ROUNDUP FOR THE NEWS MEDIA

CITY           SKY/WX    TMP DP  RH WIND       PRES   REMARKS
ORLANDO        CLEAR     65  64  97 S3        30.22S
NEW YORK       CLOUDY    34  24  67 NE8       30.20F WCI  27
NEWARK         LGTSLEET  35  28  75 NE6       30.19S WCI  30
CHICAGO        CLOUDY    41  36  82 S7        29.94F
HARTFORD       CLOUDY    23  19  85 CALM      30.23S
BOSTON         CLOUDY    22   6  50 N7        30.25R WCI  13
DALLAS         CLOUDY    50  47  89 S7        30.13S
PHILADELPHIA   CLOUDY    38  32  79 NE7       30.15  WCI  33
LOS ANGELES    CLEAR     61  20  20 CALM      30.07R
WASHINGTON DC  CLOUDY    39  35  86 CALM      30.12F


USA.gov is the U.S. government's official web portal to all federal, state and local government web resources and services.